Regional Weather Roundup
Issued by NWS

Home | Current Version | Previous Version | Graphics & Text | Print | Product List | Glossary Off
Versions: 1 2 3 4 5 6 7 8 9 10 11 12 13 14 15 16 17 18 19 20 21 22 23 24 25 26 27 28 29 30 31 32 33 34 35 36 37 38 39 40 41 42 43 44 45 46 47 48 49 50

696
ASUS43 KDMX 171006
RWRIA

WEATHER ROUNDUP FOR IOWA
NATIONAL WEATHER SERVICE DES MOINES IA
400 AM CST TUE JAN 17 2017

NOTE: "FAIR" INDICATES FEW OR NO CLOUDS BELOW 12,000 FEET WITH NO
SIGNIFICANT WEATHER AND/OR OBSTRUCTIONS TO VISIBILITY.

* - THESE STATIONS ARE NOT NWS STATIONS...THUS NOT UNDER NWS
QUALITY CONTROL.  THEY ALSO DO NOT REPORT WEATHER SUCH
AS PRECIPITATION OR FOG.

IAZ001>003-012>014-020>022-031>034-043>046-171100-
   NORTHWEST IOWA

CITY           SKY/WX    TMP DP  RH WIND       PRES   REMARKS
CARROLL *      CLOUDY    34  34 100 NW13      29.95R WCI  25
CHEROKEE *     CLOUDY    32  32 100 N3        29.96S
DENISON *      FOG       32  32 100 NW10G17   29.95S VSB 3/4 WCI  24
LE MARS *      CLOUDY    25  25 100 W8        30.01S FOG     WCI  16
ORANGE CITY *  CLOUDY    27  27 100 NW8       29.97S FOG     WCI  18
SHELDON *      CLOUDY    30  30 100 NW12      29.95S FOG     WCI  21
SIOUX CITY     CLOUDY    23  21  92 NW14      30.02R FOG     WCI  11
SPENCER        CLOUDY    31  30  96 NW14      29.94F WCI  21
STORM LAKE *   CLOUDY    32  30  93 NW12      29.94S FOG     WCI  23
$$

IAZ055>058-069>071-079>083-090>094-171100-
   SOUTHWEST IOWA

CITY           SKY/WX    TMP DP  RH WIND       PRES   REMARKS
ATLANTIC *     CLOUDY    34  34 100 NW12      29.96R WCI  25
AUDUBON *      CLOUDY    34  30  86 NW3       29.96R FOG
CLARINDA *     CLOUDY    34  34 100 NW12      29.99S WCI  25
COUNCIL BLFS * CLOUDY    30  30 100 NW10      29.98F WCI  21
CRESTON *      CLOUDY    32  32 100 NW10G17   29.95R FOG     WCI  24
HARLAN  *      CLOUDY    32  32 100 NW13      30.00S FOG     WCI  22
LAMONI         CLOUDY    33  32  96 W9        29.93R FOG     WCI  25
RED OAK *      CLOUDY    34  32  93 NW14      29.98S FOG     WCI  24
SHENANDOAH *   CLOUDY    34  32  93 NW5       30.00S FOG     WCI  30
$$

IAZ047>049-059>061-072>074-084-171100-
   CENTRAL IOWA

CITY           SKY/WX    TMP DP  RH WIND       PRES   REMARKS
AMES           CLOUDY    33  33 100 NW13      29.91S WCI  24
ANKENY *       CLOUDY    34  32  93 NW9       29.93S WCI  26
BOONE *        CLOUDY    32  32 100 NW8G15    29.90S FOG     WCI  25
CHARITON *     CLOUDY    34  32  93 NW12      29.91S FOG     WCI  25
DES MOINES     CLOUDY    34  32  92 NW12      29.93R WCI  25
GRINNELL*      CLOUDY    32  32  99 NW10      29.89R FOG     WCI  24
KNOXVILLE *    CLOUDY    34  32  93 NW10      29.89S FOG     WCI  26
MARSHALLTOWN   CLOUDY    32  32 100 NW9       29.88S FOG     WCI  24
NEWTON *       CLOUDY    32  32 100 NW10      29.89R FOG     WCI  24
PELLA *        CLOUDY    33  33  99 NW9       29.92R FOG     WCI  25
PERRY *        CLOUDY    33  33 100 NW10      29.93S FOG     WCI  25
$$

IAZ004>006-015-016-023>025-035-036-171100-
   NORTH CENTRAL IOWA

CITY           SKY/WX    TMP DP  RH WIND       PRES   REMARKS
ALGONA *       FOG       32  32 100 N14       29.91F VSB 3/4 WCI  22
CLARION *      CLOUDY    32  32 100 NW10G16   29.91R FOG     WCI  24
ESTHERVILLE    MIX PCPN  29  29 100 N17       29.92F FOG     WCI  17
FORT DODGE *   CLOUDY    32  28  86 CALM      29.94R
MASON CITY     CLOUDY    32  30  92 NW12      29.89S WCI  23
FOREST CITY *  CLOUDY    32  32 100 N10       29.89S FOG     WCI  24
WEBSTER CITY * MIX PCPN  32  32 100 NW13      29.90S WCI  22
IOWA FALLS *   CLOUDY    33  33  97 NW7       29.90R FOG     WCI  27
$$

IAZ007>011-017>019-026>030-037>042-050>054-066-171100-
   NORTHEAST IOWA

CITY           SKY/WX    TMP DP  RH WIND       PRES   REMARKS
CEDAR RAPIDS   FOG       32  32 100 NW9       29.85R VSB 1/4 WCI  24
CHARLES CITY * CLOUDY    32  32 100 MISG      29.87S FOG
CLINTON *      MIX PCPN  34  33  96 W8        29.83S VSB 3/4 WCI  27
DECORAH *      FOG       32  32 100 N6        29.84F VSB 1/2 WCI  26
DUBUQUE        FOG       33  33 100 NW7       29.83R VSB 1/4 WCI  27
MONTICELLO *   FOG       34  34 100 NW8       29.84S VSB 1/4 WCI  27
OELWEIN *      FOG       32  32 100 N7        29.85F VSB 3/4 WCI  26
WATERLOO       CLOUDY    33  32  96 NW8       29.87S FOG     WCI  26
$$

IAZ064-065-067-068-078-171100-
   EAST CENTRAL IOWA

CITY           SKY/WX    TMP DP  RH WIND       PRES   REMARKS
DAVENPORT      FOG       34  33  96 W9        29.84R VSB 3/4 WCI  27
IOWA CITY      CLOUDY    35  34  96 W7        29.88R FOG     WCI  29
MUSCATINE *    CLOUDY    36  36 100 W6        29.87R WCI  31
QUAD CITIES    FOG       35  34  96 W7        29.83S VSB 3/4 WCI  29
$$

IAZ062-063-075>077-085>089-095>099-171100-
   SOUTHEAST IOWA

CITY           SKY/WX    TMP DP  RH WIND       PRES   REMARKS
BURLINGTON     CLOUDY    37  37 100 W12       29.85S FOG     WCI  29
FAIRFIELD *    CLOUDY    34  34 100 W10       29.87S FOG     WCI  26
FORT MADISON * CLOUDY    37  37 100 W10       29.87F FOG     WCI  30
KEOKUK *       CLOUDY    39  39 100 W13       29.88R WCI  32
OSKALOOSA *    CLOUDY    32  32  99 NW13      29.89R FOG     WCI  23
OTTUMWA        CLOUDY    34  34 100 W13       29.88R WCI  25
WASHINGTON *   FOG       34  34 100 W9        29.88R VSB 1/2 WCI  26
$$

ABBREVIATIONS USED IN REMARKS
   TC - TEMPERATURES IN CELSIUS
  WCI - WIND CHILL INDEX
   HX - HEAT INDEX
  VSB - VISIBILITY
$$





USA.gov is the U.S. government's official web portal to all federal, state and local government web resources and services.